This demonstration page uses our WeatherBlox Daily Observations layout. Learn more.

Left ArrowRight Arrow

Hourly Observations for August 11, 2015

Temp ( °F °C ) Dew Point ( °F °C ) Humidity (%) Winds ( mph kmh ) Pressure ( in mb ) Visibility ( mi km ) Precip ( " mm )
12:51 am 00:51 Clear 79 26.1 65 18.3 62 62 SSW 3 6 29.80 1009 10 16 0.00 0.00
1:51 am 01:51 Clear 79 26.1 65 18.3 62 62 SW 5 7 29.80 1009 10 16 0.00 0.00
2:51 am 02:51 Clear 76 24.4 65 18.3 69 69 ENE 6 9 29.81 1010 10 16 0.00 0.00
3:51 am 03:51 Clear 80 26.7 59 15 49 49 E 9 15 29.83 1010 10 16 0.00 0.00
4:51 am 04:51 Mostly Cloudy 76 24.4 61 16.1 60 60 SSE 8 13 29.86 1011 10 16 0.00 0.00
5:51 am 05:51 Partly Cloudy 77 25 63 17.2 62 62 SE 7 11 29.88 1012 10 16 0.00 0.00
6:51 am 06:51 Mostly Sunny 80 26.7 62 16.7 54 54 SE 10 17 29.92 1013 10 16 0.00 0.00
7:51 am 07:51 Sunny 69 20.6 58 14.4 68 68 SSE 9 15 29.94 1014 10 16 0.00 0.00
8:51 am 08:51 Sunny 82 27.8 61 16.1 49 49 S 6 9 29.93 1014 10 16 0.00 0.00
9:51 am 09:51 Sunny 87 30.6 58 14.4 37 37 S 5 7 29.92 1013 10 16 0.00 0.03
10:51 am 10:51 Sunny 92 33.3 56 13.3 30 30 undefined N/A 29.90 1013 10 16 0.00 0.00
11:51 am 11:51 Sunny 95 35 56 13.3 27 27 VRB 7 11 29.86 1011 10 16 0.00 0.00
12:51 pm 12:51 Sunny 98 36.7 55 12.8 24 24 SE 13 20 29.83 1010 10 16 0.00 0.00
1:51 pm 13:51 Mostly Cloudy 99 37.2 55 12.8 23 23 ESE 13 20 29.80 1009 10 16 0.00 0.00
2:51 pm 14:51 Mostly Sunny 98 36.7 54 12.2 23 23 SSE 14 22 29.78 1008 10 16 0.00 0.00
3:51 pm 15:51 Partly Cloudy 96 35.6 60 15.6 30 30 SSE 10 17 29.75 1007 10 16 0.00 0.03
4:01 pm 16:01 Partly Cloudy with Nearby Thunderstorms 97 36.1 57 13.9 26 26 S 15 24 29.65 1004 10 16 0.00 0.00
4:10 pm 16:10 Sunny 98 36.7 55 12.8 24 24 S 14 22 29.65 1004 10 16 0.00 0.00
4:15 pm 16:15 Sunny with Thunderstorms 98 36.7 56 13.3 24 24 S 9 15 29.62 1003 10 16 0.00 0.00
4:36 pm 16:36 Mostly Cloudy with Thunderstorms 90 32 55 13 31 31 E 8 13 29.68 1005 3 5 0.00 0.00
4:51 pm 16:51 Mostly Cloudy with Thunderstorms 91 32.8 60 15.6 35 35 undefined N/A 29.78 1009 8 13 0.00 0.03
5:44 pm 17:44 Partly Cloudy with Thunderstorms 82 27.8 60 15.6 47 47 SSW 15 24 29.74 1007 N/A 0.02 0.51
5:51 pm 17:51 Partly Cloudy with Thunderstorms 81 27.2 61 16.1 51 51 NNW 15 24 29.80 1009 10 16 0.02 0.51
6:02 pm 18:02 Partly Cloudy with Light Rain 81 27 61 16 51 51 SSW 16 26 29.80 1009 10 16 0.00 0.00
6:16 pm 18:16 Mostly Cloudy with Light Rain 73 23 63 17 69 69 SW 20 31 29.80 1009 10 16 0.00 0.00
10:51 pm 22:51 Mostly Clear 78 25.6 64 17.8 62 62 N 10 17 29.95 1014 10 16 0.00 0.00
11:51 pm 23:51 Mostly Cloudy with Light Rain 73 22.8 65 18.3 76 76 WNW 10 17 29.97 1015 10 16 0.00 0.03

Powered by AerisWeather